| time (UTC) | temp F | wind direction | speed MPH | gust MPH | rain 1hr in | rain 24hr in | rain mn in | humidity % | barometer mb |
| 20260506073021 | 43 | 345 | 2.0 | 9.0 | 0.00 | 0.01 | 0.00 | 77 | 1009.1 |
| 20260506071518 | 43 | 340 | 5.0 | 8.0 | 0.00 | 0.01 | 0.00 | 78 | 1009.1 |
| 20260506061504 | 46 | 349 | 5.0 | 13.0 | 0.00 | 0.01 | 0.00 | 75 | 1008.5 |
| 20260506050108 | 49 | 297 | 4.0 | 7.0 | 0.00 | 0.01 | 0.00 | 62 | 1008.0 |
| 20260506044551 | 49 | 311 | 3.0 | 7.0 | 0.00 | 0.01 | 0.00 | 61 | 1008.1 |
| 20260506043044 | 49 | 293 | 2.0 | 6.0 | 0.00 | 0.01 | 0.00 | 61 | 1008.3 |
| 20260506041541 | 49 | 288 | 2.0 | 6.0 | 0.00 | 0.01 | 0.00 | 61 | 1008.4 |
| 20260506040042 | 50 | 276 | 1.0 | 5.0 | 0.00 | 0.01 | 0.01 | 59 | 1008.5 |
| 20260506034542 | 50 | 276 | 1.0 | 5.0 | 0.00 | 0.01 | 0.01 | 58 | 1008.3 |
| 20260506033041 | 50 | 238 | 1.0 | 5.0 | 0.00 | 0.01 | 0.01 | 57 | 1008.3 |
| 20260506031546 | 51 | 281 | 2.0 | 6.0 | 0.00 | 0.01 | 0.01 | 56 | 1008.3 |
| 20260506030036 | 51 | 272 | 4.0 | 8.0 | 0.00 | 0.01 | 0.01 | 55 | 1008.5 |
| 20260506024542 | 51 | 278 | 2.0 | 8.0 | 0.00 | 0.01 | 0.01 | 55 | 1008.5 |
| 20260506023033 | 51 | 268 | 2.0 | 6.0 | 0.00 | 0.01 | 0.01 | 55 | 1008.7 |
| 20260506021532 | 52 | 244 | 3.0 | 5.0 | 0.00 | 0.01 | 0.01 | 55 | 1008.1 |
| 20260506020029 | 52 | 302 | 3.0 | 6.0 | 0.00 | 0.01 | 0.01 | 55 | 1008.2 |
| 20260506014530 | 52 | 293 | 3.0 | 6.0 | 0.00 | 0.01 | 0.01 | 54 | 1008.0 |
| 20260506013026 | 52 | 248 | 2.0 | 6.0 | 0.00 | 0.01 | 0.01 | 56 | 1007.8 |
| 20260506011525 | 52 | 274 | 1.0 | 8.0 | 0.00 | 0.01 | 0.01 | 60 | 1007.9 |
| 20260506010024 | 52 | 270 | 1.0 | 4.0 | 0.00 | 0.01 | 0.01 | 63 | 1007.9 |
| 20260506004522 | 52 | 243 | 0.0 | 3.0 | 0.00 | 0.01 | 0.01 | 67 | 1007.8 |
| 20260506003020 | 53 | 239 | 0.0 | 2.0 | 0.00 | 0.01 | 0.01 | 66 | 1007.5 |
| 20260506001519 | 53 | 250 | 0.0 | 2.0 | 0.00 | 0.01 | 0.01 | 65 | 1007.3 |
| 20260506000018 | 54 | 234 | 2.0 | 5.0 | 0.00 | 0.01 | 0.01 | 64 | 1007.2 |
| 20260505234520 | 54 | 248 | 1.0 | 4.0 | 0.00 | 0.01 | 0.01 | 64 | 1006.9 |
| 20260505233017 | 54 | 247 | 1.0 | 7.0 | 0.00 | 0.01 | 0.01 | 63 | 1006.9 |
| 20260505231519 | 55 | 237 | 2.0 | 7.0 | 0.00 | 0.01 | 0.01 | 62 | 1006.9 |
| 20260505230018 | 55 | 285 | 4.0 | 9.0 | 0.00 | 0.01 | 0.01 | 62 | 1007.0 |
| 20260505224516 | 55 | 270 | 3.0 | 7.0 | 0.00 | 0.01 | 0.01 | 64 | 1007.0 |
| 20260505223016 | 55 | 267 | 4.0 | 8.0 | 0.00 | 0.01 | 0.01 | 65 | 1007.1 |
| 20260505221514 | 55 | 271 | 2.0 | 11.0 | 0.00 | 0.01 | 0.01 | 66 | 1007.0 |
| 20260505220013 | 55 | 274 | 4.0 | 7.0 | 0.00 | 0.01 | 0.01 | 64 | 1007.0 |
| 20260505214523 | 55 | 253 | 4.0 | 9.0 | 0.00 | 0.01 | 0.01 | 65 | 1006.9 |
| 20260505213015 | 55 | 250 | 3.0 | 9.0 | 0.00 | 0.01 | 0.01 | 65 | 1007.1 |
| 20260505211512 | 55 | 266 | 3.0 | 7.0 | 0.00 | 0.01 | 0.01 | 66 | 1007.0 |
| 20260505210011 | 55 | 266 | 4.0 | 10.0 | 0.00 | 0.01 | 0.01 | 65 | 1007.0 |
| 20260505204510 | 55 | 286 | 5.0 | 10.0 | 0.00 | 0.01 | 0.01 | 65 | 1007.0 |
| 20260505203010 | 55 | 274 | 3.0 | 7.0 | 0.00 | 0.01 | 0.01 | 65 | 1007.0 |
| 20260505201512 | 55 | 236 | 3.0 | 12.0 | 0.00 | 0.01 | 0.01 | 65 | 1007.1 |
| 20260505200009 | 55 | 260 | 5.0 | 11.0 | 0.00 | 0.01 | 0.01 | 65 | 1007.2 |
| 20260505194508 | 55 | 272 | 4.0 | 11.0 | 0.00 | 0.01 | 0.01 | 65 | 1007.2 |
| 20260505193009 | 54 | 269 | 4.0 | 8.0 | 0.00 | 0.01 | 0.01 | 71 | 1007.2 |
| 20260505191507 | 54 | 270 | 4.0 | 9.0 | 0.00 | 0.01 | 0.01 | 74 | 1007.2 |
| 20260505190007 | 54 | 264 | 4.0 | 7.0 | 0.00 | 0.01 | 0.01 | 75 | 1007.2 |
| 20260505184509 | 53 | 245 | 1.0 | 3.0 | 0.00 | 0.01 | 0.01 | 79 | 1007.0 |
| 20260505183007 | 52 | 121 | 2.0 | 6.0 | 0.00 | 0.01 | 0.01 | 81 | 1006.9 |
| 20260505181504 | 51 | 127 | 2.0 | 5.0 | 0.00 | 0.01 | 0.01 | 81 | 1006.9 |
| 20260505180003 | 50 | 128 | 3.0 | 6.0 | 0.00 | 0.01 | 0.01 | 81 | 1006.7 |
| 20260505174506 | 49 | 93 | 1.0 | 4.0 | 0.00 | 0.01 | 0.01 | 82 | 1006.8 |
| 20260505173001 | 50 | 123 | 2.0 | 5.0 | 0.00 | 0.01 | 0.01 | 81 | 1006.7 |
| 20260505171506 | 50 | 206 | 1.0 | 3.0 | 0.01 | 0.01 | 0.01 | 80 | 1006.7 |
| 20260505170101 | 49 | 162 | 0.0 | 1.0 | 0.01 | 0.01 | 0.01 | 78 | 1006.9 |
| 20260505164606 | 49 | 167 | 0.0 | 2.0 | 0.01 | 0.01 | 0.01 | 80 | 1006.7 |
| 20260505163059 | 49 | 169 | 1.0 | 2.0 | 0.01 | 0.01 | 0.01 | 78 | 1006.7 |
| 20260505161606 | 49 | 301 | 0.0 | 1.0 | 0.00 | 0.00 | 0.00 | 72 | 1006.8 |
| 20260505153101 | 51 | 333 | 4.0 | 7.0 | 0.00 | 0.00 | 0.00 | 70 | 1006.6 |
| 20260505151603 | 51 | 308 | 1.0 | 2.0 | 0.00 | 0.00 | 0.00 | 66 | 1006.1 |
| 20260505140107 | 51 | 23 | 2.0 | 4.0 | 0.00 | 0.00 | 0.00 | 68 | 1005.4 |
| 20260505124537 | 50 | 15 | 5.0 | 9.0 | 0.00 | 0.00 | 0.00 | 68 | 1004.3 |
| 20260505123037 | 49 | 41 | 4.0 | 9.0 | 0.00 | 0.00 | 0.00 | 69 | 1004.3 |
| 20260505121538 | 49 | 43 | 6.0 | 11.0 | 0.00 | 0.00 | 0.00 | 70 | 1004.0 |
| 20260505120042 | 49 | 348 | 4.0 | 7.0 | 0.00 | 0.00 | 0.00 | 74 | 1003.4 |
| 20260505114527 | 49 | 4 | 4.0 | 9.0 | 0.00 | 0.00 | 0.00 | 75 | 1003.3 |
| 20260505113026 | 50 | 30 | 7.0 | 12.0 | 0.00 | 0.00 | 0.00 | 77 | 1003.3 |
| 20260505111524 | 50 | 333 | 5.0 | 11.0 | 0.00 | 0.00 | 0.00 | 79 | 1002.6 |
| 20260505101511 | 59 | 232 | 1.0 | 6.0 | 0.00 | 0.00 | 0.00 | 79 | 1000.8 |
| 20260505100007 | 59 | 259 | 2.0 | 8.0 | 0.00 | 0.00 | 0.00 | 78 | 1000.5 |
| 20260505094504 | 59 | 266 | 2.0 | 6.0 | 0.00 | 0.00 | 0.00 | 78 | 1000.6 |
| 20260505093003 | 60 | 257 | 4.0 | 7.0 | 0.00 | 0.00 | 0.00 | 77 | 1000.1 |
| 20260505091607 | 60 | 264 | 3.0 | 6.0 | 0.00 | 0.00 | 0.00 | 77 | 999.9 |
| 20260505090057 | 60 | 232 | 4.0 | 8.0 | 0.00 | 0.00 | 0.00 | 76 | 999.8 |
| 20260505084556 | 60 | 242 | 5.0 | 10.0 | 0.00 | 0.00 | 0.00 | 77 | 999.5 |
| 20260505083058 | 60 | 249 | 2.0 | 9.0 | 0.00 | 0.00 | 0.00 | 77 | 999.3 |
| 20260505081550 | 61 | 236 | 3.0 | 6.0 | 0.00 | 0.00 | 0.00 | 75 | 999.2 |
| 20260505080050 | 61 | 250 | 3.0 | 8.0 | 0.00 | 0.00 | 0.00 | 74 | 998.9 |